Wind_Speed
43 46 46 47 47 47 47 44 43 42 40 39 38 37 36 36 35 36 36 35 34 34
40 44 46 47 48 48 47 47 45 45 43 40 40 39 38 39 39 37 36 34 35 35
40 41 43 46 47 47 46 45 45 45 44 41 41 40 40 42 43 42 42 42 41 41
41 42 43 45 46 46 46 46 45 44 43 41 41 42 42 43 45 47 47 47 46 45
41 42 44 45 44 43 45 45 44 45 44 44 42 40 42 44 45 44 49 50 50 50
37 38 41 43 43 43 44 44 44 45 45 43 41 41 41 40 44 43 44 45 50 53
34 36 37 38 39 39 40 40 40 40 40 41 40 41 41 42 43 40 43 41 43 48
20 26 31 34 35 35 35 35 35 35 36 36 38 36 38 39 43 43 43 41 43 43
16 17 20 23 26 29 29 28 28 31 31 31 30 29 30 33 36 37 41 42 41 44
16 16 16 16 18 21 23 24 28 29 31 32 32 32 31 32 33 35 39 38 43 43
14 14 13 13 13 15 18 21 24 26 26 27 28 29 30 30 32 32 32 32 30 31
13 12 12 13 14 14 15 17 18 18 20 23 25 28 30 32 31 29 30 29 28 27
10 12 12 12 12 12 12 11 10 10 11 11 13 15 17 19 20 24 24 25 26 25
7 9 11 11 11 11 10 10 10 10 11 12 13 15 16 17 20 23 22 23 22 23
Wind_Direction
246 247 250 251 252 253 255 257 258 259 258 258 257 254 252 250 248 247 250 254 255 256
251 249 250 253 254 255 258 260 261 261 260 260 260 257 253 250 248 246 244 243 250 255
256 256 257 257 257 258 261 262 263 263 264 263 261 259 255 253 250 249 248 247 245 250
257 260 260 259 261 261 263 263 264 266 266 264 262 260 257 257 255 253 252 251 250 250
258 261 264 265 266 266 266 268 268 268 268 269 268 266 262 260 260 261 259 256 253 251
254 257 261 265 268 269 268 268 270 269 269 270 270 267 266 266 268 264 268 265 262 256
254 255 256 258 260 264 265 266 267 269 271 270 271 271 271 270 267 268 269 263 272 264
252 250 252 254 256 256 255 258 262 267 267 268 270 271 271 276 273 264 266 270 271 274
254 255 254 253 252 252 253 255 256 255 261 263 266 273 275 276 279 280 272 273 274 280
255 249 250 252 251 248 246 245 248 254 257 260 264 266 265 268 269 272 272 272 277 272
255 254 253 254 256 256 255 254 255 255 255 255 256 260 263 265 266 271 273 273 282 279
250 246 246 248 250 257 262 264 264 264 263 261 259 257 258 262 268 274 280 280 277 277
251 254 256 260 265 265 266 272 277 286 290 289 285 279 279 273 278 273 276 281 280 270
234 244 252 257 261 266 270 274 274 267 271 273 274 277 277 288 278 268 271 276 272 265
Height
1522 1524 1526 1527 1529 1531 1533 1535 1539 1540 1542 1544 1545 1546 1549 1551 1552 1553 1554 1555 1556 1555
1513 1515 1515 1518 1520 1522 1525 1526 1529 1530 1533 1535 1537 1538 1539 1540 1541 1543 1543 1543 1545 1544
1504 1507 1509 1511 1512 1513 1515 1517 1519 1521 1523 1526 1527 1529 1530 1530 1531 1532 1533 1533 1534 1536
1497 1499 1501 1502 1503 1504 1507 1508 1510 1511 1513 1515 1517 1519 1520 1521 1522 1522 1523 1524 1524 1525
1491 1492 1493 1494 1495 1498 1499 1501 1502 1504 1505 1507 1509 1511 1512 1512 1512 1513 1513 1514 1515 1514
1482 1483 1484 1486 1488 1490 1491 1493 1495 1497 1497 1499 1499 1501 1503 1504 1503 1503 1504 1503 1504 1504
1474 1475 1476 1478 1480 1482 1484 1485 1487 1488 1490 1491 1491 1492 1493 1495 1494 1494 1494 1493 1494 1495
1466 1466 1467 1469 1471 1473 1475 1477 1478 1480 1481 1481 1482 1482 1484 1486 1485 1485 1485 1485 1486 1487
1461 1461 1461 1461 1462 1464 1466 1469 1471 1471 1472 1473 1474 1474 1476 1477 1478 1477 1477 1478 1477 1478
1457 1456 1457 1457 1457 1458 1460 1462 1463 1464 1465 1465 1466 1467 1467 1468 1469 1468 1469 1467 1468 1468
1453 1454 1454 1454 1455 1455 1456 1456 1456 1457 1456 1457 1458 1458 1459 1461 1460 1460 1461 1460 1460 1459
1449 1450 1450 1450 1451 1452 1453 1452 1452 1451 1450 1450 1451 1450 1451 1453 1454 1453 1454 1456 1455 1454
1447 1447 1448 1447 1447 1448 1448 1447 1447 1447 1447 1447 1448 1447 1448 1449 1449 1448 1446 1449 1449 1450
1442 1443 1444 1444 1444 1444 1444 1444 1444 1444 1444 1443 1443 1442 1443 1443 1441 1442 1442 1443 1443 1443